EHI
23 23 24 23 18 16 13 10 9 8 7 6 4 3 3 1 1 2 2 3 4 4 3 2 1 2 4 5 6 6 4 3 1 1 2 3 2 1 0 0 0 1 2
24 24 23 22 18 15 13 10 8 7 7 5 4 3 3 2 1 1 1 1 3 4 4 2 1 2 4 5 6 5 3 1 0 0 1 2 2 1 0 0 1 2 3
24 23 21 20 17 14 12 9 8 8 6 4 4 4 3 2 1 0 0 0 1 2 3 3 2 3 4 5 6 5 2 0 0 0 0 1 1 0 0 0 1 2 3
24 22 21 19 15 13 11 9 9 9 7 5 4 4 3 1 0 0 0 0 0 1 2 3 3 4 5 6 6 4 1 0 1 1 0 0 0 1 1 0 0 1 1
24 24 23 20 16 12 10 8 9 9 8 6 5 4 1 0 0 1 0 0 0 0 1 2 3 3 4 6 6 4 3 2 2 1 1 0 2 3 3 1 0 0 0
26 27 26 22 17 13 11 9 8 8 7 6 5 3 1 0 0 0 0 1 1 1 0 1 2 3 4 5 6 6 6 5 4 3 2 2 4 6 6 4 1 0 0
27 28 27 24 19 15 11 9 8 7 6 4 4 3 1 0 0 0 0 1 2 1 0 1 2 3 4 5 7 8 10 9 7 5 5 6 8 11 11 7 4 2 1
25 26 26 25 22 17 13 10 9 8 5 3 3 2 1 0 0 0 0 1 1 1 1 2 4 5 5 6 8 10 13 13 9 6 7 10 13 15 13 9 6 4 2
23 22 23 23 21 19 16 14 13 10 5 3 3 2 1 0 1 1 1 1 2 2 3 5 7 8 9 9 10 11 14 14 9 5 6 11 16 18 14 9 7 6 4
22 20 20 20 19 17 16 15 14 10 7 4 4 3 1 1 2 3 4 6 6 6 6 7 8 10 11 12 13 13 13 12 8 5 5 11 19 20 15 10 8 6 4
20 17 17 18 18 14 13 13 12 10 7 6 5 4 3 3 4 5 8 11 12 11 10 10 11 11 11 13 15 15 13 8 6 5 6 13 22 21 16 12 9 6 4
13 14 14 17 17 14 12 12 12 10 9 8 7 6 5 5 5 6 9 14 15 14 14 15 15 12 11 12 15 16 11 6 4 4 7 16 23 22 17 13 11 7 5
9 11 12 14 16 15 13 13 13 12 11 10 9 9 8 7 8 9 10 13 14 14 14 17 17 13 11 12 13 12 8 5 4 5 7 14 21 21 17 15 13 10 8
8 10 12 14 18 19 18 15 13 13 13 12 12 11 10 9 9 9 10 12 11 10 10 12 13 10 9 9 9 7 5 4 6 6 8 14 18 18 17 16 15 14 13
12 13 15 18 23 26 23 19 16 16 15 14 14 13 11 9 8 7 9 11 9 7 7 7 7 6 6 5 4 3 2 2 5 7 9 14 17 18 18 17 16 16 15
21 21 21 24 28 30 26 21 19 18 17 16 15 14 12 10 10 10 10 10 8 6 5 4 3 4 5 4 3 2 1 2 4 6 8 10 13 15 16 18 18 16 15
32 31 28 27 29 31 27 23 19 17 17 18 17 16 15 15 15 14 11 9 7 7 5 4 5 5 5 4 4 4 4 4 5 6 6 7 9 10 12 16 17 17 16
43 42 35 28 30 32 29 24 19 16 18 21 21 20 19 19 18 15 12 9 8 7 6 7 8 8 6 5 6 7 7 7 6 6 7 8 8 9 9 10 13 15 17
51 50 42 35 38 39 33 26 21 19 21 25 26 25 24 23 19 14 11 12 11 9 8 8 9 9 7 4 4 6 8 8 7 6 7 8 8 9 10 10 12 13 13
52 53 50 46 46 45 39 32 26 25 27 29 30 30 29 26 22 14 12 15 14 13 11 9 9 10 8 5 3 3 6 8 8 7 7 7 7 9 12 14 14 12 11
51 54 54 51 50 48 44 39 34 32 32 32 31 31 30 28 22 17 16 18 16 15 13 11 11 11 8 6 3 3 5 8 8 7 7 6 6 7 11 14 15 14 13
52 52 52 53 52 51 49 44 39 36 34 31 30 32 31 28 24 20 20 19 16 14 12 12 13 13 8 5 4 4 5 6 7 6 5 4 5 6 9 11 14 15 14
48 47 47 49 51 51 49 44 40 38 36 31 30 32 32 30 26 22 21 20 16 13 12 12 14 13 10 7 5 4 4 5 5 3 3 4 5 6 8 10 12 14 14
41 42 43 44 46 47 45 42 41 40 37 35 34 34 34 34 31 27 25 23 18 13 11 11 11 12 11 8 5 4 5 6 6 4 3 4 4 6 8 9 9 12 14
37 40 42 42 41 42 41 42 42 39 38 38 38 38 37 35 33 31 29 26 21 16 13 9 8 9 9 7 5 4 5 7 8 8 6 4 4 6 7 7 8 10 11
36 40 43 42 40 39 40 42 41 38 37 39 41 40 36 34 32 33 31 27 22 19 14 9 8 7 6 6 5 3 4 6 8 9 8 7 6 6 7 6 7 8 8
Wind_Speed
14 14 13 12 11 11 10 10 10 10 10 11 11 10 10 10 10 10 9 9 9 9 9 8 8 8 8 8 8 9 9 9 10 9 9 9 9 8 8 8 7 7 11
17 15 14 12 12 11 10 10 10 10 10 10 10 10 10 10 10 9 9 8 9 9 8 8 7 8 8 8 7 7 8 8 8 8 8 8 8 8 7 7 8 7 10
17 15 14 12 12 11 11 10 10 10 10 10 9 9 9 9 9 8 8 8 8 8 8 8 8 8 8 7 7 7 7 6 6 6 5 4 6 9 9 9 9 9 9
17 14 13 13 12 11 10 10 10 10 9 9 9 9 9 8 8 7 7 7 7 8 8 8 8 7 7 7 6 6 5 5 3 2 2 4 6 10 10 9 9 8 8
16 16 14 13 12 11 10 9 9 9 9 8 8 8 8 8 8 7 8 8 7 8 8 8 8 7 6 6 5 5 4 3 2 1 3 5 6 9 10 9 8 8 8
16 17 14 13 12 11 10 9 9 9 8 8 8 8 8 8 7 8 8 8 8 8 8 8 7 6 5 5 5 4 3 2 1 2 4 5 6 9 9 9 8 7 7
16 16 15 13 12 11 10 10 9 9 8 7 7 8 7 7 6 7 8 8 8 8 7 7 6 5 5 5 4 3 2 1 2 2 3 5 7 10 10 9 8 7 6
16 16 14 14 13 11 11 10 9 9 7 7 7 7 7 6 6 5 6 7 7 7 7 7 6 6 5 4 3 2 2 3 1 3 4 5 8 10 10 9 8 6 6
15 15 13 12 11 11 11 10 9 8 7 6 6 6 6 6 6 6 6 7 7 6 6 6 6 5 5 4 3 3 3 4 2 1 5 5 9 10 10 8 8 7 6
12 13 12 12 11 10 10 10 10 8 7 6 5 5 5 5 5 6 6 7 7 6 6 5 5 4 4 4 4 4 4 3 2 1 4 6 10 10 9 8 7 6 6
9 10 10 10 10 9 10 10 9 9 7 6 5 5 5 3 4 5 6 8 7 7 6 6 5 5 4 5 6 6 4 2 2 3 4 8 10 9 8 7 7 6 6
9 9 7 8 7 7 7 7 5 6 6 4 3 4 3 1 2 5 8 8 7 7 6 6 6 5 5 3 5 6 2 2 2 4 5 10 9 9 7 7 6 6 6
8 8 7 6 6 5 5 5 2 3 3 3 3 2 1 1 2 3 3 4 4 5 4 4 4 2 2 2 1 2 2 1 2 3 5 9 9 8 7 7 6 6 6
7 7 7 6 6 4 4 3 3 2 2 2 2 1 1 1 1 1 2 2 2 1 1 1 1 1 1 1 1 1 1 2 2 3 5 9 9 8 8 7 6 6 6
6 6 7 6 6 4 3 2 3 3 3 3 2 1 1 1 1 2 2 1 1 1 1 1 1 1 2 2 2 2 2 2 2 3 3 8 8 8 7 7 7 6 6
6 5 5 6 7 5 3 2 2 3 3 3 2 2 1 1 2 2 2 1 1 2 2 2 1 1 2 2 2 3 3 3 2 2 3 4 6 7 6 6 6 6 6
6 5 5 6 6 5 4 3 2 2 3 2 3 3 2 2 2 1 1 1 1 1 2 1 1 1 0 1 1 2 2 1 1 1 3 3 3 4 5 5 5 5 5
7 6 4 5 7 5 3 2 2 2 2 3 3 3 2 2 2 1 1 1 1 1 1 1 1 1 1 1 1 1 1 1 1 0 1 2 2 3 4 5 5 5 5
6 6 4 4 5 6 4 3 2 2 2 3 3 3 2 2 2 1 1 1 0 1 1 1 2 1 1 2 1 1 0 1 0 0 1 1 2 2 3 5 6 6 5
7 6 5 4 5 5 4 3 1 2 2 2 3 3 3 1 2 1 1 2 0 1 1 2 2 1 1 1 2 1 1 1 1 1 1 0 1 1 2 3 3 4 5
7 6 5 5 4 4 3 3 3 2 2 2 2 4 3 2 2 1 1 1 0 1 1 1 1 0 0 0 1 1 1 1 1 1 1 0 1 0 1 1 2 1 2
7 6 5 5 5 4 3 2 2 3 2 3 2 3 3 2 1 2 1 1 1 1 2 1 1 1 1 0 0 1 1 1 1 1 1 0 1 1 1 1 1 1 1
7 6 5 4 4 3 3 2 2 2 2 2 3 3 2 2 2 1 1 1 1 1 1 0 1 1 1 1 1 1 0 1 2 1 1 1 0 0 1 0 0 1 1
7 7 5 5 4 3 3 3 3 3 3 3 2 3 3 3 3 2 2 1 1 1 1 1 1 1 1 1 1 0 0 0 0 1 1 1 1 0 1 1 1 1 2
7 7 7 6 5 4 2 2 3 2 2 2 2 3 3 2 3 3 2 2 1 0 1 1 1 1 1 1 1 1 1 1 1 1 1 2 1 1 0 0 1 1 1
6 6 7 6 5 4 3 2 3 3 2 3 3 3 3 3 2 3 3 2 1 1 1 0 0 0 1 2 2 1 1 1 1 1 1 1 1 2 1 0 0 0 0
Wind_Direction
107 111 108 103 99 96 93 91 89 86 82 79 77 75 72 72 75 77 80 87 95 98 100 103 107 107 101 97 98 100 101 100 101 99 101 101 101 102 102 103 106 103 105
112 113 110 107 103 99 95 93 92 90 86 83 80 78 77 76 76 77 80 88 94 98 100 105 114 112 109 107 111 111 110 108 108 111 116 113 109 108 104 99 95 105 111
112 117 114 109 106 103 98 94 94 93 90 85 81 79 79 79 77 78 80 87 96 99 100 103 112 110 110 107 107 110 111 114 123 129 137 128 117 114 109 105 105 111 115
117 119 114 114 109 106 101 98 97 98 95 90 85 82 82 80 77 79 86 93 98 102 105 109 109 105 106 109 113 117 119 127 143 160 138 123 115 116 119 117 113 114 118
117 115 116 118 113 110 105 103 101 100 97 94 91 87 83 80 78 81 93 97 97 99 102 107 111 111 111 112 115 120 128 139 163 217 105 97 104 123 127 123 120 119 115
118 117 121 122 118 115 111 107 104 102 99 98 95 91 86 82 79 82 94 96 99 101 104 107 109 116 121 121 122 130 146 178 247 156 118 115 116 129 129 125 122 121 116
118 120 126 127 123 120 116 111 107 102 101 100 97 93 91 88 84 83 88 93 99 103 107 110 111 117 121 126 135 145 163 234 229 160 129 120 124 135 134 131 128 127 130
120 121 128 131 128 125 121 116 112 107 104 103 102 101 99 97 95 93 92 95 96 99 104 108 109 113 120 130 145 166 202 256 226 135 114 114 129 136 138 138 139 143 145
121 127 135 137 134 132 128 124 122 119 116 111 112 113 115 115 116 114 110 104 100 101 104 111 117 122 133 150 174 197 223 252 271 164 120 116 131 137 141 145 149 152 152
122 127 136 140 142 144 139 136 134 133 132 130 132 137 143 143 143 136 129 122 121 125 127 129 136 149 166 189 208 219 237 264 240 111 106 123 132 139 144 148 154 159 159
122 127 134 137 145 148 142 141 148 150 154 150 157 165 175 178 164 153 132 135 141 148 152 159 172 181 195 219 230 232 245 238 170 108 108 125 135 143 149 152 156 161 166
131 129 131 132 135 138 135 138 158 155 153 169 156 167 188 186 136 126 129 141 155 165 174 188 196 201 211 218 221 221 237 223 119 113 120 134 139 143 148 153 160 167 173
134 132 131 125 124 124 122 138 144 133 140 155 135 153 157 136 124 128 139 148 163 174 194 188 195 214 212 218 194 179 191 167 111 108 130 140 143 149 155 159 170 174 177
134 134 128 129 124 120 118 127 126 122 128 118 116 142 125 127 97 109 118 131 156 161 158 126 153 211 257 289 10 69 84 92 103 111 135 145 153 161 164 167 173 181 185
130 132 133 132 119 113 102 116 127 115 116 115 112 113 91 115 105 91 75 68 61 77 97 69 56 33 3 4 8 37 35 62 90 118 132 152 157 164 170 178 185 191 197
129 129 124 126 121 120 120 113 110 121 114 120 119 116 101 71 76 81 84 67 63 63 53 55 51 41 14 8 15 21 32 31 62 98 124 150 164 169 173 183 194 201 206
132 123 120 131 126 129 135 146 134 131 130 119 108 106 112 93 86 94 102 91 56 71 66 67 41 50 39 33 23 20 40 38 63 84 135 156 165 176 181 185 192 200 206
131 127 134 142 135 135 136 138 131 132 124 118 114 116 115 106 102 77 100 94 61 95 93 104 60 38 31 18 12 355 31 26 49 84 137 150 152 161 183 193 195 202 210
121 132 138 131 137 146 148 141 139 108 85 96 101 104 111 117 101 94 95 85 67 77 63 57 74 43 33 16 335 284 50 72 4 348 82 108 145 162 163 185 197 205 212
122 130 138 137 132 141 144 149 143 123 113 99 102 101 108 109 98 59 122 112 49 82 62 47 56 47 9 346 318 339 290 182 175 82 49 39 183 167 161 164 187 209 212
125 126 142 147 143 147 150 162 163 154 145 132 126 113 119 122 114 107 69 124 80 76 76 70 63 120 263 308 337 316 288 224 146 129 174 158 16 61 124 142 164 176 187
139 141 143 144 153 159 150 163 160 149 150 136 121 121 133 130 124 149 79 126 112 97 80 51 14 2 308 294 306 291 308 338 339 213 186 171 5 353 23 73 89 119 129
147 147 145 147 151 157 151 158 159 148 157 140 135 132 150 145 149 92 111 41 89 120 117 118 9 336 300 305 15 31 350 333 313 305 275 100 50 342 14 342 54 104 114
150 148 139 137 145 155 163 171 173 173 170 153 150 148 160 163 161 149 132 103 61 78 115 162 96 316 311 309 340 344 231 211 266 311 323 349 301 297 325 321 25 65 93
150 149 144 140 138 146 164 172 181 171 156 145 142 148 157 169 174 153 142 134 138 133 122 122 56 355 323 335 331 324 313 286 243 237 292 310 305 264 220 271 83 47 72
155 150 145 141 143 149 157 158 175 176 165 159 170 164 174 170 171 157 149 142 154 163 124 161 157 155 345 348 336 334 330 327 321 302 286 285 303 302 266 254 132 152 105